Time,TemperatureF,DewpointF,PressureIn,WindDirection,WindDirectionDegrees,WindSpeedMPH,WindSpeedGustMPH,Humidity,HourlyPrecipIn,Conditions,Clouds,dailyrainin,SoftwareType,DateUTC
2013-04-14 00:03:00,31.3,21.3,30.00,East,90,0.0,0.0,66,0.00,,---,0.00,VWS V14.01,2013-04-14 05:03:00,
2013-04-14 00:08:00,31.1,21.1,30.00,East,90,0.0,0.0,66,0.00,,---,0.00,VWS V14.01,2013-04-14 05:08:00,
2013-04-14 00:13:00,31.1,21.4,30.00,East,90,0.0,0.0,67,0.00,,---,0.00,VWS V14.01,2013-04-14 05:13:00,
2013-04-14 00:18:00,31.3,21.6,30.00,SE,135,1.1,1.1,67,0.00,,---,0.00,VWS V14.01,2013-04-14 05:18:00,
2013-04-14 00:24:00,31.5,21.8,30.00,East,90,0.0,1.6,67,0.00,,---,0.00,VWS V14.01,2013-04-14 05:24:00,
2013-04-14 00:29:00,31.6,22.3,29.97,SE,135,0.0,1.3,68,0.00,,---,0.00,VWS V14.01,2013-04-14 05:29:00,
2013-04-14 00:34:00,31.8,22.5,29.97,ESE,112,0.0,0.0,68,0.00,,---,0.00,VWS V14.01,2013-04-14 05:34:00,
2013-04-14 00:39:00,32.0,22.6,29.97,South,180,0.0,0.9,68,0.00,,---,0.00,VWS V14.01,2013-04-14 05:39:00,
2013-04-14 00:44:00,32.0,22.6,29.97,East,90,2.0,2.0,68,0.00,,---,0.00,VWS V14.01,2013-04-14 05:44:00,
2013-04-14 00:51:00,32.2,22.8,29.97,SE,135,2.0,2.0,68,0.00,,---,0.00,VWS V14.01,2013-04-14 05:51:00,
2013-04-14 00:57:00,32.2,22.8,29.97,SE,135,2.2,2.7,68,0.00,,---,0.00,VWS V14.01,2013-04-14 05:57:00,
2013-04-14 01:02:00,32.2,22.8,29.97,SSE,158,2.0,2.0,68,0.00,,---,0.00,VWS V14.01,2013-04-14 06:02:00,
2013-04-14 01:08:00,32.2,22.5,29.97,East,90,0.0,0.0,67,0.00,,---,0.00,VWS V14.01,2013-04-14 06:08:00,
2013-04-14 01:13:00,32.2,22.5,29.97,ENE,68,0.0,0.0,67,0.00,,---,0.00,VWS V14.01,2013-04-14 06:13:00,
2013-04-14 01:19:00,32.2,22.5,29.97,SE,135,0.9,0.9,67,0.00,,---,0.00,VWS V14.01,2013-04-14 06:19:00,
2013-04-14 01:25:00,32.2,22.5,29.97,ESE,112,0.0,2.2,67,0.00,,---,0.00,VWS V14.01,2013-04-14 06:25:00,
2013-04-14 01:30:00,32.2,22.5,29.97,ENE,68,1.3,2.5,67,0.00,,---,0.00,VWS V14.01,2013-04-14 06:30:00,
2013-04-14 01:35:00,32.2,22.5,29.97,SSE,158,2.0,2.0,67,0.00,,---,0.00,VWS V14.01,2013-04-14 06:35:00,
2013-04-14 01:40:00,32.2,22.5,29.97,ENE,68,1.1,2.0,67,0.00,,---,0.00,VWS V14.01,2013-04-14 06:40:00,
2013-04-14 01:45:00,32.2,22.5,29.97,ENE,68,0.0,0.0,67,0.00,,---,0.00,VWS V14.01,2013-04-14 06:45:00,
2013-04-14 01:50:00,32.2,22.5,29.97,East,90,0.0,1.3,67,0.00,,---,0.00,VWS V14.01,2013-04-14 06:50:00,
2013-04-14 01:56:00,32.2,22.5,29.94,East,90,0.0,2.0,67,0.00,,---,0.00,VWS V14.01,2013-04-14 06:56:00,
2013-04-14 02:01:00,32.2,22.5,29.94,ENE,68,0.0,1.3,67,0.00,,---,0.00,VWS V14.01,2013-04-14 07:01:00,
2013-04-14 02:07:00,32.2,22.5,29.94,East,90,2.0,2.2,67,0.00,,---,0.00,VWS V14.01,2013-04-14 07:07:00,
2013-04-14 02:12:00,32.2,22.5,29.94,ENE,68,0.9,2.0,67,0.00,,---,0.00,VWS V14.01,2013-04-14 07:12:00,
2013-04-14 02:18:00,32.2,22.5,29.94,East,90,2.0,2.7,67,0.00,,---,0.00,VWS V14.01,2013-04-14 07:18:00,
2013-04-14 02:23:00,32.0,22.3,29.94,East,90,0.9,1.6,67,0.00,,---,0.00,VWS V14.01,2013-04-14 07:23:00,
2013-04-14 02:29:00,32.0,22.3,29.91,East,90,1.1,2.0,67,0.00,,---,0.00,VWS V14.01,2013-04-14 07:29:00,
2013-04-14 02:34:00,31.8,22.1,29.91,East,90,1.1,1.1,67,0.00,,---,0.00,VWS V14.01,2013-04-14 07:34:00,
2013-04-14 02:39:00,31.8,21.8,29.91,SE,135,1.3,3.1,66,0.00,,---,0.00,VWS V14.01,2013-04-14 07:39:00,
2013-04-14 02:44:00,31.8,21.8,29.91,ESE,112,1.3,1.6,66,0.00,,---,0.00,VWS V14.01,2013-04-14 07:44:00,
2013-04-14 02:49:00,31.8,21.4,29.91,East,90,2.2,2.2,65,0.00,,---,0.00,VWS V14.01,2013-04-14 07:49:00,
2013-04-14 02:55:00,32.0,21.6,29.91,ESE,112,0.0,1.6,65,0.00,,---,0.00,VWS V14.01,2013-04-14 07:55:00,
2013-04-14 03:00:00,32.0,21.2,29.91,ENE,68,1.1,2.7,64,0.00,,---,0.00,VWS V14.01,2013-04-14 08:00:00,
2013-04-14 03:06:00,31.8,21.4,29.91,ESE,112,1.1,2.7,65,0.00,,---,0.00,VWS V14.01,2013-04-14 08:06:00,
2013-04-14 03:12:00,31.8,21.0,29.91,NE,45,1.1,3.1,64,0.00,,---,0.00,VWS V14.01,2013-04-14 08:12:00,
2013-04-14 03:17:00,31.8,21.0,29.91,ENE,68,1.3,2.0,64,0.00,,---,0.00,VWS V14.01,2013-04-14 08:17:00,
2013-04-14 03:22:00,31.8,21.0,29.91,SE,135,2.5,2.7,64,0.00,,---,0.00,VWS V14.01,2013-04-14 08:22:00,
2013-04-14 03:27:00,31.8,21.0,29.91,ESE,112,2.5,3.6,64,0.00,,---,0.00,VWS V14.01,2013-04-14 08:27:00,
2013-04-14 03:33:00,31.8,20.7,29.91,East,90,2.2,2.2,63,0.00,,---,0.00,VWS V14.01,2013-04-14 08:33:00,
2013-04-14 03:38:00,31.6,20.5,29.91,ESE,112,2.0,2.5,63,0.00,,---,0.00,VWS V14.01,2013-04-14 08:38:00,
2013-04-14 03:44:00,31.8,21.0,29.94,ESE,112,1.1,2.7,64,0.00,,---,0.00,VWS V14.01,2013-04-14 08:44:00,
2013-04-14 03:49:00,31.8,21.0,29.94,ESE,112,1.6,2.2,64,0.00,,---,0.00,VWS V14.01,2013-04-14 08:49:00,
2013-04-14 03:54:00,31.8,20.7,29.94,SE,135,2.7,2.7,63,0.00,,---,0.00,VWS V14.01,2013-04-14 08:54:00,
2013-04-14 03:59:00,31.8,20.7,29.91,SW,225,2.9,2.9,63,0.00,,---,0.00,VWS V14.01,2013-04-14 08:59:00,
2013-04-14 04:05:00,31.6,20.5,29.91,East,90,1.1,2.0,63,0.00,,---,0.00,VWS V14.01,2013-04-14 09:05:00,
2013-04-14 04:10:00,31.6,20.5,29.91,SE,135,1.3,2.9,63,0.00,,---,0.00,VWS V14.01,2013-04-14 09:10:00,
2013-04-14 04:15:00,31.8,20.7,29.91,ENE,68,2.9,2.9,63,0.00,,---,0.00,VWS V14.01,2013-04-14 09:15:00,
2013-04-14 04:22:00,31.6,20.5,29.91,NE,45,2.7,3.6,63,0.00,,---,0.00,VWS V14.01,2013-04-14 09:22:00,
2013-04-14 04:28:00,31.6,20.9,29.91,ESE,112,3.1,3.1,64,0.00,,---,0.00,VWS V14.01,2013-04-14 09:28:00,
2013-04-14 04:34:00,31.6,20.9,29.91,SE,135,2.9,6.3,64,0.00,,---,0.00,VWS V14.01,2013-04-14 09:34:00,
2013-04-14 04:40:00,31.5,21.1,29.91,NNE,22,3.4,3.6,65,0.00,,---,0.00,VWS V14.01,2013-04-14 09:40:00,
2013-04-14 04:47:00,31.5,21.1,29.91,NE,45,0.0,2.2,65,0.00,,---,0.00,VWS V14.01,2013-04-14 09:47:00,
2013-04-14 04:53:00,31.3,21.3,29.91,ENE,68,2.5,3.1,66,0.00,,---,0.00,VWS V14.01,2013-04-14 09:53:00,
2013-04-14 04:59:00,31.3,21.3,29.91,South,180,2.5,2.7,66,0.00,,---,0.00,VWS V14.01,2013-04-14 09:59:00,
2013-04-14 05:04:00,31.3,21.3,29.91,SSE,158,2.9,3.4,66,0.00,,---,0.00,VWS V14.01,2013-04-14 10:04:00,
2013-04-14 05:09:00,31.3,21.3,29.91,ENE,68,2.5,2.7,66,0.00,,---,0.00,VWS V14.01,2013-04-14 10:09:00,
2013-04-14 05:14:00,31.3,20.9,29.91,ENE,68,1.6,3.4,65,0.00,,---,0.00,VWS V14.01,2013-04-14 10:14:00,
2013-04-14 05:20:00,31.3,20.9,29.91,East,90,2.5,2.5,65,0.00,,---,0.00,VWS V14.01,2013-04-14 10:20:00,
2013-04-14 05:25:00,31.3,20.9,29.91,East,90,2.7,3.6,65,0.00,,---,0.00,VWS V14.01,2013-04-14 10:25:00,
2013-04-14 05:31:00,31.3,21.3,29.91,East,90,2.5,3.6,66,0.00,,---,0.00,VWS V14.01,2013-04-14 10:31:00,
2013-04-14 05:36:00,31.1,21.1,29.91,SE,135,1.6,3.4,66,0.00,,---,0.00,VWS V14.01,2013-04-14 10:36:00,
2013-04-14 05:42:00,31.1,21.1,29.91,SSE,158,2.5,2.7,66,0.00,,---,0.00,VWS V14.01,2013-04-14 10:42:00,
2013-04-14 05:47:00,31.1,21.1,29.91,ENE,68,2.2,3.8,66,0.00,,---,0.00,VWS V14.01,2013-04-14 10:47:00,
2013-04-14 05:53:00,30.2,23.2,29.91,ESE,112,3.6,3.6,75,0.00,,---,0.00,VWS V14.01,2013-04-14 10:53:00,
2013-04-14 05:59:00,30.0,23.4,29.91,East,90,1.1,2.5,76,0.00,,---,0.00,VWS V14.01,2013-04-14 10:59:00,
2013-04-14 06:04:00,30.0,23.7,29.91,East,90,1.3,2.5,77,0.00,,---,0.00,VWS V14.01,2013-04-14 11:04:00,
2013-04-14 06:10:00,30.0,23.7,29.91,ESE,112,2.0,2.5,77,0.00,,---,0.00,VWS V14.01,2013-04-14 11:10:00,
2013-04-14 06:16:00,29.8,23.5,29.91,East,90,2.0,2.2,77,0.00,,---,0.00,VWS V14.01,2013-04-14 11:16:00,
2013-04-14 06:22:00,29.8,23.5,29.91,NE,45,2.2,2.5,77,0.00,,---,0.00,VWS V14.01,2013-04-14 11:22:00,
2013-04-14 06:28:00,29.8,23.8,29.91,SSW,202,2.7,3.1,78,0.00,,---,0.00,VWS V14.01,2013-04-14 11:28:00,
2013-04-14 06:33:00,29.8,23.8,29.91,East,90,2.0,4.7,78,0.00,,---,0.00,VWS V14.01,2013-04-14 11:33:00,
2013-04-14 06:38:00,29.8,23.8,29.91,SSE,158,1.3,2.9,78,0.00,,---,0.00,VWS V14.01,2013-04-14 11:38:00,
2013-04-14 06:44:00,30.0,24.0,29.88,ESE,112,2.7,3.8,78,0.00,,---,0.00,VWS V14.01,2013-04-14 11:44:00,
2013-04-14 06:49:00,29.8,24.1,29.88,East,90,1.6,2.2,79,0.00,,---,0.00,VWS V14.01,2013-04-14 11:49:00,
2013-04-14 06:54:00,29.8,24.1,29.88,East,90,2.7,6.5,79,0.00,,---,0.00,VWS V14.01,2013-04-14 11:54:00,
2013-04-14 07:00:00,29.8,24.1,29.88,ENE,68,2.7,5.6,79,0.00,,---,0.00,VWS V14.01,2013-04-14 12:00:00,
2013-04-14 07:05:00,29.8,24.1,29.88,ENE,68,4.3,7.2,79,0.00,,---,0.00,VWS V14.01,2013-04-14 12:05:00,
2013-04-14 07:10:00,29.8,24.1,29.88,ESE,112,4.9,4.9,79,0.00,,---,0.00,VWS V14.01,2013-04-14 12:10:00,
2013-04-14 07:15:00,29.8,24.4,29.88,SE,135,2.0,4.0,80,0.00,,---,0.00,VWS V14.01,2013-04-14 12:15:00,
2013-04-14 07:20:00,29.8,24.4,29.88,ESE,112,3.4,4.7,80,0.00,,---,0.00,VWS V14.01,2013-04-14 12:20:00,
2013-04-14 07:25:00,29.8,24.4,29.88,East,90,2.2,3.4,80,0.00,,---,0.00,VWS V14.01,2013-04-14 12:25:00,
2013-04-14 07:31:00,29.8,24.4,29.88,ESE,112,2.0,3.8,80,0.00,,---,0.00,VWS V14.01,2013-04-14 12:31:00,
2013-04-14 07:36:00,29.8,24.4,29.88,ENE,68,2.2,2.7,80,0.00,,---,0.00,VWS V14.01,2013-04-14 12:36:00,
2013-04-14 07:41:00,30.0,24.6,29.88,ENE,68,4.0,6.3,80,0.00,,---,0.00,VWS V14.01,2013-04-14 12:41:00,
2013-04-14 07:46:00,30.0,24.3,29.88,SE,135,2.7,6.5,79,0.00,,---,0.00,VWS V14.01,2013-04-14 12:46:00,
2013-04-14 07:52:00,30.2,24.5,29.88,SSW,202,3.1,3.1,79,0.00,,---,0.00,VWS V14.01,2013-04-14 12:52:00,
2013-04-14 07:57:00,30.2,24.2,29.88,East,90,6.5,6.5,78,0.00,,---,0.00,VWS V14.01,2013-04-14 12:57:00,
2013-04-14 08:02:00,30.2,23.9,29.88,ESE,112,2.9,4.7,77,0.00,,---,0.00,VWS V14.01,2013-04-14 13:02:00,
2013-04-14 08:08:00,30.4,23.7,29.88,ENE,68,2.7,4.3,76,0.00,,---,0.00,VWS V14.01,2013-04-14 13:08:00,
2013-04-14 08:13:00,30.6,23.6,29.88,SE,135,2.5,2.7,75,0.00,,---,0.00,VWS V14.01,2013-04-14 13:13:00,
2013-04-14 08:19:00,30.6,23.3,29.88,NNE,22,3.6,3.6,74,0.00,,---,0.00,VWS V14.01,2013-04-14 13:19:00,
2013-04-14 08:24:00,30.7,23.1,29.88,SE,135,4.3,6.5,73,0.00,,---,0.00,VWS V14.01,2013-04-14 13:24:00,
2013-04-14 08:30:00,30.9,22.6,29.85,NE,45,3.8,5.4,71,0.00,,---,0.00,VWS V14.01,2013-04-14 13:30:00,
2013-04-14 08:36:00,31.1,22.5,29.85,South,180,4.9,4.9,70,0.00,,---,0.00,VWS V14.01,2013-04-14 13:36:00,
2013-04-14 08:42:00,31.3,22.0,29.85,SSE,158,5.4,5.6,68,0.00,,---,0.00,VWS V14.01,2013-04-14 13:42:00,
2013-04-14 08:48:00,31.3,22.0,29.85,ESE,112,3.1,6.3,68,0.00,,---,0.00,VWS V14.01,2013-04-14 13:48:00,
2013-04-14 08:53:00,31.3,21.6,29.85,East,90,3.4,6.0,67,0.00,,---,0.00,VWS V14.01,2013-04-14 13:53:00,
2013-04-14 08:59:00,31.3,21.3,29.85,SSE,158,4.0,4.3,66,0.00,,---,0.00,VWS V14.01,2013-04-14 13:59:00,
2013-04-14 09:04:00,31.5,21.4,29.85,ENE,68,4.0,4.0,66,0.00,,---,0.00,VWS V14.01,2013-04-14 14:04:00,
2013-04-14 09:09:00,31.5,21.8,29.85,NE,45,2.9,2.9,67,0.00,,---,0.00,VWS V14.01,2013-04-14 14:09:00,
2013-04-14 09:15:00,31.5,22.1,29.82,NE,45,3.4,3.8,68,0.00,,---,0.00,VWS V14.01,2013-04-14 14:15:00,
2013-04-14 09:20:00,31.5,22.1,29.82,NE,45,2.7,4.7,68,0.00,,---,0.00,VWS V14.01,2013-04-14 14:20:00,
2013-04-14 09:26:00,31.8,22.8,29.82,ESE,112,2.7,4.0,69,0.00,,---,0.00,VWS V14.01,2013-04-14 14:26:00,
2013-04-14 09:31:00,32.2,22.8,29.82,ENE,68,3.4,5.8,68,0.00,,---,0.00,VWS V14.01,2013-04-14 14:31:00,
2013-04-14 09:37:00,32.4,23.7,29.82,NNE,22,1.3,3.6,70,0.00,,---,0.00,VWS V14.01,2013-04-14 14:37:00,
2013-04-14 09:42:00,32.5,24.2,29.82,SE,135,2.7,4.3,71,0.00,,---,0.00,VWS V14.01,2013-04-14 14:42:00,
2013-04-14 09:48:00,32.7,24.4,29.82,NE,45,2.5,3.8,71,0.00,,---,0.00,VWS V14.01,2013-04-14 14:48:00,
2013-04-14 09:54:00,32.9,24.5,29.82,SE,135,3.8,4.0,71,0.00,,---,0.00,VWS V14.01,2013-04-14 14:54:00,
2013-04-14 09:59:00,32.9,24.5,29.79,SE,135,3.4,5.6,71,0.00,,---,0.00,VWS V14.01,2013-04-14 14:59:00,
2013-04-14 10:05:00,32.9,24.9,29.79,ESE,112,3.4,5.4,72,0.00,,---,0.00,VWS V14.01,2013-04-14 15:05:00,
2013-04-14 10:10:00,32.5,24.5,29.79,SSE,158,3.6,8.7,72,0.00,,---,0.00,VWS V14.01,2013-04-14 15:10:00,
2013-04-14 10:16:00,32.5,24.9,29.79,ENE,68,11.0,11.0,73,0.00,,---,0.00,VWS V14.01,2013-04-14 15:16:00,
2013-04-14 10:22:00,32.4,24.7,29.79,SE,135,4.3,4.9,73,0.00,,---,0.00,VWS V14.01,2013-04-14 15:22:00,
2013-04-14 10:27:00,32.4,25.0,29.79,NE,45,3.1,5.4,74,0.00,,---,0.00,VWS V14.01,2013-04-14 15:27:00,
2013-04-14 10:33:00,32.4,25.0,29.79,SSE,158,5.8,5.8,74,0.00,,---,0.00,VWS V14.01,2013-04-14 15:33:00,
2013-04-14 10:38:00,32.5,25.5,29.79,ENE,68,3.6,4.3,75,0.00,,---,0.00,VWS V14.01,2013-04-14 15:38:00,
2013-04-14 10:43:00,32.4,25.6,29.79,ENE,68,2.9,3.8,76,0.00,,---,0.00,VWS V14.01,2013-04-14 15:43:00,
2013-04-14 10:48:00,32.4,26.0,29.79,ENE,68,4.0,4.3,77,0.00,,---,0.00,VWS V14.01,2013-04-14 15:48:00,
2013-04-14 10:53:00,32.4,26.0,29.79,NE,45,3.1,6.0,77,0.00,,---,0.00,VWS V14.01,2013-04-14 15:53:00,
2013-04-14 10:58:00,32.4,26.0,29.76,ENE,68,3.4,6.0,77,0.00,,---,0.00,VWS V14.01,2013-04-14 15:58:00,
2013-04-14 11:03:00,32.4,26.0,29.76,ENE,68,4.7,6.5,77,0.00,,---,0.00,VWS V14.01,2013-04-14 16:03:00,
2013-04-14 11:09:00,32.5,26.1,29.76,ESE,112,3.1,12.8,77,0.00,,---,0.00,VWS V14.01,2013-04-14 16:09:00,
2013-04-14 11:14:00,32.5,26.1,29.76,NNE,22,5.4,7.8,77,0.00,,---,0.00,VWS V14.01,2013-04-14 16:14:00,
2013-04-14 11:19:00,32.7,26.3,29.76,South,180,2.9,6.0,77,0.00,,---,0.00,VWS V14.01,2013-04-14 16:19:00,
2013-04-14 11:24:00,32.7,26.6,29.76,ESE,112,5.4,5.4,78,0.00,,---,0.00,VWS V14.01,2013-04-14 16:24:00,
2013-04-14 11:29:00,32.5,26.5,29.76,East,90,5.6,6.3,78,0.00,,---,0.00,VWS V14.01,2013-04-14 16:29:00,
2013-04-14 11:34:00,32.5,26.8,29.76,ESE,112,3.6,5.8,79,0.00,,---,0.00,VWS V14.01,2013-04-14 16:34:00,
2013-04-14 11:39:00,32.5,26.8,29.76,NE,45,3.4,3.8,79,0.00,,---,0.00,VWS V14.01,2013-04-14 16:39:00,
2013-04-14 11:45:00,32.5,27.4,29.76,SW,225,4.0,6.5,81,0.00,,---,0.00,VWS V14.01,2013-04-14 16:45:00,
2013-04-14 11:50:00,32.4,27.2,29.76,SW,225,4.0,7.8,81,0.00,,---,0.00,VWS V14.01,2013-04-14 16:50:00,
2013-04-14 11:55:00,32.5,27.7,29.76,SE,135,3.1,3.1,82,0.00,,---,0.00,VWS V14.01,2013-04-14 16:55:00,
2013-04-14 12:00:00,32.5,28.0,29.76,East,90,2.0,4.3,83,0.00,,---,0.00,VWS V14.01,2013-04-14 17:00:00,
2013-04-14 12:06:00,32.5,28.0,29.76,East,90,3.6,4.3,83,0.00,,---,0.00,VWS V14.01,2013-04-14 17:06:00,
2013-04-14 12:11:00,32.5,28.2,29.76,East,90,4.3,5.8,84,0.00,,---,0.00,VWS V14.01,2013-04-14 17:11:00,
2013-04-14 12:16:00,32.5,28.2,29.76,NE,45,3.1,5.4,84,0.00,,---,0.00,VWS V14.01,2013-04-14 17:16:00,
2013-04-14 12:21:00,32.5,28.5,29.76,ENE,68,1.6,6.5,85,0.00,,---,0.00,VWS V14.01,2013-04-14 17:21:00,
2013-04-14 12:27:00,32.5,28.5,29.76,East,90,2.5,2.7,85,0.00,,---,0.00,VWS V14.01,2013-04-14 17:27:00,
2013-04-14 12:32:00,32.5,28.5,29.76,SE,135,3.8,6.5,85,0.00,,---,0.00,VWS V14.01,2013-04-14 17:32:00,
2013-04-14 12:37:00,32.5,28.8,29.76,ENE,68,4.9,4.9,86,0.00,,---,0.00,VWS V14.01,2013-04-14 17:37:00,
2013-04-14 12:42:00,32.7,29.3,29.74,SE,135,2.7,3.4,87,0.00,,---,0.00,VWS V14.01,2013-04-14 17:42:00,
2013-04-14 12:48:00,32.7,29.3,29.74,SE,135,4.3,4.3,87,0.00,,---,0.00,VWS V14.01,2013-04-14 17:48:00,
2013-04-14 12:53:00,32.9,29.5,29.74,NE,45,5.6,5.6,87,0.00,,---,0.00,VWS V14.01,2013-04-14 17:53:00,
2013-04-14 12:58:00,32.9,29.5,29.74,ESE,112,3.6,6.3,87,0.00,,---,0.00,VWS V14.01,2013-04-14 17:58:00,
2013-04-14 13:03:00,33.1,29.6,29.74,ENE,68,4.0,8.5,87,0.00,,---,0.00,VWS V14.01,2013-04-14 18:03:00,
2013-04-14 13:09:00,33.1,29.9,29.74,East,90,3.4,3.6,88,0.00,,---,0.00,VWS V14.01,2013-04-14 18:09:00,
2013-04-14 13:14:00,33.1,29.9,29.71,SSE,158,2.0,4.0,88,0.00,,---,0.00,VWS V14.01,2013-04-14 18:14:00,
2013-04-14 13:19:00,33.1,29.9,29.71,East,90,2.7,3.6,88,0.00,,---,0.00,VWS V14.01,2013-04-14 18:19:00,
2013-04-14 13:24:00,33.1,29.9,29.71,East,90,4.3,4.9,88,0.00,,---,0.00,VWS V14.01,2013-04-14 18:24:00,
2013-04-14 13:30:00,33.1,30.2,29.71,East,90,2.9,4.9,89,0.00,,---,0.00,VWS V14.01,2013-04-14 18:30:00,
2013-04-14 13:35:00,33.1,30.2,29.71,SE,135,8.7,8.7,89,0.00,,---,0.00,VWS V14.01,2013-04-14 18:35:00,
2013-04-14 13:40:00,33.1,30.2,29.71,East,90,3.6,4.0,89,0.00,,---,0.00,VWS V14.01,2013-04-14 18:40:00,
2013-04-14 13:45:00,33.1,30.5,29.71,NE,45,2.9,4.7,90,0.00,,---,0.00,VWS V14.01,2013-04-14 18:45:00,
2013-04-14 13:51:00,33.1,30.7,29.71,SSE,158,3.6,8.1,91,0.00,,---,0.00,VWS V14.01,2013-04-14 18:51:00,
2013-04-14 13:56:00,33.1,30.7,29.71,ESE,112,3.6,5.8,91,0.00,,---,0.00,VWS V14.01,2013-04-14 18:56:00,
2013-04-14 14:01:00,33.1,31.0,29.71,SSE,158,2.7,3.8,92,0.00,,---,0.00,VWS V14.01,2013-04-14 19:01:00,
2013-04-14 14:06:00,33.3,31.2,29.71,SE,135,4.0,6.5,92,0.00,,---,0.00,VWS V14.01,2013-04-14 19:06:00,
2013-04-14 14:12:00,33.1,31.0,29.68,East,90,7.4,7.4,92,0.00,,---,0.00,VWS V14.01,2013-04-14 19:12:00,
2013-04-14 14:18:00,33.1,31.0,29.68,ENE,68,3.6,6.9,92,0.00,,---,0.00,VWS V14.01,2013-04-14 19:18:00,
2013-04-14 14:23:00,33.1,31.0,29.68,ESE,112,1.6,6.0,92,0.00,,---,0.00,VWS V14.01,2013-04-14 19:23:00,
2013-04-14 14:28:00,33.1,31.0,29.68,ENE,68,3.4,5.4,92,0.00,,---,0.00,VWS V14.01,2013-04-14 19:28:00,
2013-04-14 14:33:00,33.1,31.3,29.68,SSW,202,3.6,3.6,93,0.00,,---,0.00,VWS V14.01,2013-04-14 19:33:00,
2013-04-14 14:38:00,33.1,31.3,29.68,East,90,3.8,6.0,93,0.00,,---,0.00,VWS V14.01,2013-04-14 19:38:00,
2013-04-14 14:43:00,33.1,31.3,29.68,ENE,68,2.0,4.0,93,0.00,,---,0.00,VWS V14.01,2013-04-14 19:43:00,
2013-04-14 14:48:00,33.3,31.5,29.68,SE,135,3.8,5.6,93,0.00,,---,0.00,VWS V14.01,2013-04-14 19:48:00,
2013-04-14 14:53:00,33.1,31.3,29.68,North,0,2.0,3.6,93,0.00,,---,0.00,VWS V14.01,2013-04-14 19:53:00,
2013-04-14 14:59:00,33.1,31.3,29.68,SE,135,7.4,7.4,93,0.00,,---,0.00,VWS V14.01,2013-04-14 19:59:00,
2013-04-14 15:04:00,33.1,31.3,29.68,ENE,68,3.8,5.6,93,0.00,,---,0.00,VWS V14.01,2013-04-14 20:04:00,
2013-04-14 15:09:00,33.1,31.3,29.68,East,90,4.9,6.0,93,0.00,,---,0.00,VWS V14.01,2013-04-14 20:09:00,
2013-04-14 15:14:00,33.1,31.5,29.68,ENE,68,2.7,3.1,94,0.00,,---,0.00,VWS V14.01,2013-04-14 20:14:00,
2013-04-14 15:19:00,33.1,31.5,29.68,ESE,112,2.5,5.4,94,0.00,,---,0.00,VWS V14.01,2013-04-14 20:19:00,
2013-04-14 15:24:00,33.1,31.5,29.68,ESE,112,4.9,4.9,94,0.00,,---,0.00,VWS V14.01,2013-04-14 20:24:00,
2013-04-14 15:29:00,33.1,31.8,29.65,ENE,68,3.8,4.9,95,0.00,,---,0.00,VWS V14.01,2013-04-14 20:29:00,
2013-04-14 15:34:00,33.1,31.8,29.65,ESE,112,3.6,4.0,95,0.00,,---,0.00,VWS V14.01,2013-04-14 20:34:00,
2013-04-14 15:39:00,33.1,31.8,29.65,SSE,158,2.9,2.9,95,0.00,,---,0.00,VWS V14.01,2013-04-14 20:39:00,
2013-04-14 15:45:00,33.1,31.8,29.65,ENE,68,4.3,4.3,95,0.00,,---,0.00,VWS V14.01,2013-04-14 20:45:00,
2013-04-14 15:51:00,33.1,31.8,29.65,East,90,4.9,5.8,95,0.00,,---,0.00,VWS V14.01,2013-04-14 20:51:00,
2013-04-14 15:57:00,33.1,31.8,29.62,NE,45,7.2,7.8,95,0.00,,---,0.00,VWS V14.01,2013-04-14 20:57:00,
2013-04-14 16:02:00,33.1,31.8,29.62,ESE,112,4.0,5.4,95,0.00,,---,0.00,VWS V14.01,2013-04-14 21:02:00,
2013-04-14 16:07:00,33.1,31.8,29.62,ENE,68,3.4,4.0,95,0.00,,---,0.00,VWS V14.01,2013-04-14 21:07:00,
2013-04-14 16:13:00,33.1,31.8,29.62,East,90,3.4,6.0,95,0.00,,---,0.00,VWS V14.01,2013-04-14 21:13:00,
2013-04-14 16:19:00,33.1,31.8,29.62,NE,45,2.0,4.3,95,0.00,,---,0.00,VWS V14.01,2013-04-14 21:19:00,
2013-04-14 16:24:00,33.1,31.8,29.62,ESE,112,4.3,4.3,95,0.00,,---,0.00,VWS V14.01,2013-04-14 21:24:00,
2013-04-14 16:30:00,33.1,31.8,29.62,NNE,22,1.3,4.0,95,0.00,,---,0.00,VWS V14.01,2013-04-14 21:30:00,
2013-04-14 16:35:00,33.1,31.8,29.62,East,90,1.6,4.0,95,0.00,,---,0.00,VWS V14.01,2013-04-14 21:35:00,
2013-04-14 16:41:00,33.1,31.8,29.62,NNE,22,4.0,4.9,95,0.00,,---,0.00,VWS V14.01,2013-04-14 21:41:00,
2013-04-14 16:47:00,33.1,31.8,29.62,East,90,3.4,3.6,95,0.00,,---,0.00,VWS V14.01,2013-04-14 21:47:00,
2013-04-14 16:52:00,33.1,31.8,29.62,ESE,112,2.5,3.6,95,0.00,,---,0.00,VWS V14.01,2013-04-14 21:52:00,
2013-04-14 16:58:00,33.3,32.0,29.59,ENE,68,2.5,3.6,95,0.00,,---,0.00,VWS V14.01,2013-04-14 21:58:00,
2013-04-14 17:03:00,33.3,32.0,29.59,ESE,112,2.9,3.8,95,0.00,,---,0.00,VWS V14.01,2013-04-14 22:03:00,
2013-04-14 17:08:00,33.3,32.0,29.59,ESE,112,2.0,3.4,95,0.00,,---,0.00,VWS V14.01,2013-04-14 22:08:00,
2013-04-14 17:14:00,33.1,31.8,29.59,East,90,2.9,5.6,95,0.00,,---,0.00,VWS V14.01,2013-04-14 22:14:00,
2013-04-14 17:20:00,33.1,31.8,29.59,ESE,112,3.1,3.6,95,0.00,,---,0.00,VWS V14.01,2013-04-14 22:20:00,
2013-04-14 17:25:00,33.3,32.0,29.59,SSE,158,2.5,4.7,95,0.00,,---,0.00,VWS V14.01,2013-04-14 22:25:00,
2013-04-14 17:30:00,33.3,32.0,29.59,NE,45,3.1,3.1,95,0.00,,---,0.00,VWS V14.01,2013-04-14 22:30:00,
2013-04-14 17:36:00,33.3,32.0,29.59,SE,135,4.7,5.6,95,0.00,,---,0.00,VWS V14.01,2013-04-14 22:36:00,
2013-04-14 17:42:00,33.3,32.0,29.59,ENE,68,2.9,3.6,95,0.00,,---,0.00,VWS V14.01,2013-04-14 22:42:00,
2013-04-14 17:47:00,33.3,32.0,29.59,NNE,22,3.8,4.9,95,0.00,,---,0.00,VWS V14.01,2013-04-14 22:47:00,
2013-04-14 17:52:00,33.3,32.0,29.59,ENE,68,3.1,3.6,95,0.00,,---,0.00,VWS V14.01,2013-04-14 22:52:00,
2013-04-14 17:57:00,33.3,32.2,29.56,NE,45,5.4,5.4,96,0.00,,---,0.00,VWS V14.01,2013-04-14 22:57:00,
2013-04-14 18:02:00,33.3,32.2,29.56,SSE,158,4.3,4.3,96,0.00,,---,0.00,VWS V14.01,2013-04-14 23:02:00,
2013-04-14 18:07:00,33.3,32.2,29.56,ENE,68,3.1,4.3,96,0.00,,---,0.00,VWS V14.01,2013-04-14 23:07:00,
2013-04-14 18:13:00,33.3,32.2,29.59,ENE,68,7.4,7.4,96,0.00,,---,0.00,VWS V14.01,2013-04-14 23:13:00,
2013-04-14 18:18:00,33.3,32.5,29.59,ESE,112,2.5,11.2,97,0.00,,---,0.00,VWS V14.01,2013-04-14 23:18:00,
2013-04-14 18:23:00,33.3,32.5,29.59,ESE,112,2.5,4.9,97,0.00,,---,0.00,VWS V14.01,2013-04-14 23:23:00,
2013-04-14 18:28:00,33.3,32.5,29.56,NE,45,3.1,3.4,97,0.00,,---,0.00,VWS V14.01,2013-04-14 23:28:00,
2013-04-14 18:33:00,33.3,32.5,29.56,SE,135,2.7,2.9,97,0.00,,---,0.00,VWS V14.01,2013-04-14 23:33:00,
2013-04-14 18:38:00,33.3,32.5,29.56,ENE,68,1.1,3.1,97,0.00,,---,0.00,VWS V14.01,2013-04-14 23:38:00,
2013-04-14 18:43:00,33.4,32.7,29.56,ENE,68,3.4,3.4,97,0.00,,---,0.00,VWS V14.01,2013-04-14 23:43:00,
2013-04-14 18:49:00,33.4,32.7,29.56,SE,135,3.4,5.6,97,0.00,,---,0.00,VWS V14.01,2013-04-14 23:49:00,
2013-04-14 18:54:00,33.4,32.7,29.56,ESE,112,3.1,3.1,97,0.00,,---,0.00,VWS V14.01,2013-04-14 23:54:00,
2013-04-14 18:59:00,33.4,32.9,29.56,East,90,2.7,2.9,98,0.00,,---,0.00,VWS V14.01,2013-04-14 23:59:00,
2013-04-14 19:05:00,33.4,32.9,29.56,SE,135,7.4,7.4,98,0.00,,---,0.00,VWS V14.01,2013-04-15 00:05:00,
2013-04-14 19:10:00,33.6,33.1,29.56,ESE,112,4.3,4.3,98,0.00,,---,0.00,VWS V14.01,2013-04-15 00:10:00,
2013-04-14 19:15:00,33.6,33.1,29.56,East,90,4.3,4.3,98,0.00,,---,0.00,VWS V14.01,2013-04-15 00:15:00,
2013-04-14 19:20:00,33.6,33.1,29.56,SSW,202,1.6,2.0,98,0.00,,---,0.00,VWS V14.01,2013-04-15 00:20:00,
2013-04-14 19:25:00,33.6,33.1,29.56,East,90,3.6,3.6,98,0.00,,---,0.00,VWS V14.01,2013-04-15 00:25:00,
2013-04-14 19:31:00,33.6,33.1,29.53,SSE,158,2.0,5.6,98,0.00,,---,0.00,VWS V14.01,2013-04-15 00:31:00,
2013-04-14 19:36:00,33.6,33.1,29.53,ENE,68,3.6,3.8,98,0.00,,---,0.00,VWS V14.01,2013-04-15 00:36:00,
2013-04-14 19:42:00,33.6,33.1,29.56,ESE,112,2.5,3.1,98,0.00,,---,0.00,VWS V14.01,2013-04-15 00:42:00,
2013-04-14 19:47:00,33.6,33.1,29.56,ESE,112,2.0,3.4,98,0.00,,---,0.00,VWS V14.01,2013-04-15 00:47:00,
2013-04-14 19:53:00,33.6,33.1,29.56,NE,45,2.5,3.8,98,0.00,,---,0.00,VWS V14.01,2013-04-15 00:53:00,
2013-04-14 19:58:00,33.8,33.3,29.53,South,180,3.1,4.0,98,0.00,,---,0.00,VWS V14.01,2013-04-15 00:58:00,
2013-04-14 20:04:00,33.8,33.3,29.53,NE,45,2.7,4.3,98,0.00,,---,0.00,VWS V14.01,2013-04-15 01:04:00,
2013-04-14 20:11:00,33.8,33.3,29.53,NE,45,3.1,3.4,98,0.00,,---,0.00,VWS V14.01,2013-04-15 01:11:00,
2013-04-14 20:16:00,33.8,33.3,29.56,SSE,158,2.5,3.6,98,0.00,,---,0.00,VWS V14.01,2013-04-15 01:16:00,
2013-04-14 20:21:00,33.8,33.3,29.56,ESE,112,2.5,2.7,98,0.00,,---,0.00,VWS V14.01,2013-04-15 01:21:00,
2013-04-14 20:26:00,33.8,33.3,29.56,East,90,2.5,3.1,98,0.00,,---,0.00,VWS V14.01,2013-04-15 01:26:00,
2013-04-14 20:32:00,33.8,33.3,29.56,East,90,1.6,3.6,98,0.00,,---,0.00,VWS V14.01,2013-04-15 01:32:00,
2013-04-14 20:37:00,33.8,33.3,29.56,ESE,112,0.9,4.3,98,0.00,,---,0.00,VWS V14.01,2013-04-15 01:37:00,
2013-04-14 20:42:00,33.8,33.3,29.56,SSE,158,1.3,2.5,98,0.00,,---,0.00,VWS V14.01,2013-04-15 01:42:00,
2013-04-14 20:47:00,33.8,33.3,29.56,ESE,112,1.1,2.9,98,0.00,,---,0.00,VWS V14.01,2013-04-15 01:47:00,
2013-04-14 20:52:00,34.0,33.5,29.56,SE,135,0.0,1.3,98,0.00,,---,0.00,VWS V14.01,2013-04-15 01:52:00,
2013-04-14 20:57:00,34.0,33.5,29.56,East,90,0.9,0.9,98,0.00,,---,0.00,VWS V14.01,2013-04-15 01:57:00,
2013-04-14 21:03:00,34.0,33.5,29.56,ESE,112,1.6,2.7,98,0.00,,---,0.00,VWS V14.01,2013-04-15 02:03:00,
2013-04-14 21:09:00,34.0,33.5,29.56,NNE,22,2.2,2.2,98,0.00,,---,0.00,VWS V14.01,2013-04-15 02:09:00,
2013-04-14 21:14:00,34.2,33.7,29.56,ENE,68,3.6,4.0,98,0.00,,---,0.00,VWS V14.01,2013-04-15 02:14:00,
2013-04-14 21:19:00,34.3,33.8,29.56,SE,135,2.7,3.1,98,0.00,,---,0.00,VWS V14.01,2013-04-15 02:19:00,
2013-04-14 21:24:00,34.3,33.8,29.56,SE,135,3.1,4.3,98,0.00,,---,0.00,VWS V14.01,2013-04-15 02:24:00,
2013-04-14 21:31:00,34.3,33.8,29.59,NNE,22,2.5,2.5,98,0.00,,---,0.00,VWS V14.01,2013-04-15 02:31:00,
2013-04-14 21:36:00,34.3,33.8,29.59,South,180,3.6,3.6,98,0.00,,---,0.00,VWS V14.01,2013-04-15 02:36:00,
2013-04-14 21:41:00,34.3,33.8,29.59,ENE,68,2.9,3.4,98,0.00,,---,0.00,VWS V14.01,2013-04-15 02:41:00,
2013-04-14 21:47:00,34.5,34.0,29.59,ESE,112,3.4,3.4,98,0.00,,---,0.00,VWS V14.01,2013-04-15 02:47:00,
2013-04-14 21:52:00,34.5,34.0,29.59,SE,135,2.5,3.1,98,0.00,,---,0.00,VWS V14.01,2013-04-15 02:52:00,
2013-04-14 21:58:00,34.5,34.0,29.56,ESE,112,5.4,5.4,98,0.00,,---,0.00,VWS V14.01,2013-04-15 02:58:00,
2013-04-14 22:03:00,34.5,34.0,29.56,NE,45,3.1,4.7,98,0.00,,---,0.00,VWS V14.01,2013-04-15 03:03:00,
2013-04-14 22:09:00,34.7,34.2,29.56,East,90,2.9,5.8,98,0.00,,---,0.00,VWS V14.01,2013-04-15 03:09:00,
2013-04-14 22:14:00,34.9,34.4,29.59,SE,135,4.0,6.0,98,0.00,,---,0.00,VWS V14.01,2013-04-15 03:14:00,
2013-04-14 22:20:00,34.9,34.4,29.59,East,90,1.6,3.1,98,0.00,,---,0.00,VWS V14.01,2013-04-15 03:20:00,
2013-04-14 22:25:00,34.9,34.4,29.59,South,180,3.4,4.3,98,0.00,,---,0.00,VWS V14.01,2013-04-15 03:25:00,
2013-04-14 22:30:00,35.1,34.5,29.59,ENE,68,0.0,3.6,98,0.00,,---,0.00,VWS V14.01,2013-04-15 03:30:00,
2013-04-14 22:35:00,35.1,34.5,29.59,SSE,158,2.7,5.4,98,0.00,,---,0.00,VWS V14.01,2013-04-15 03:35:00,
2013-04-14 22:40:00,35.1,34.5,29.59,ESE,112,1.1,1.1,98,0.00,,---,0.00,VWS V14.01,2013-04-15 03:40:00,
2013-04-14 22:45:00,35.2,34.7,29.59,ESE,112,2.9,3.1,98,0.00,,---,0.00,VWS V14.01,2013-04-15 03:45:00,
2013-04-14 22:50:00,35.2,34.7,29.59,ESE,112,4.3,5.6,98,0.00,,---,0.00,VWS V14.01,2013-04-15 03:50:00,
2013-04-14 22:55:00,35.2,34.7,29.59,SSE,158,4.3,4.3,98,0.00,,---,0.00,VWS V14.01,2013-04-15 03:55:00,
2013-04-14 23:00:00,35.2,34.7,29.56,South,180,3.1,3.1,98,0.00,,---,0.00,VWS V14.01,2013-04-15 04:00:00,
2013-04-14 23:02:00,35.4,34.9,29.56,ESE,112,5.6,5.6,98,0.00,,---,0.00,VWS V14.01,2013-04-15 04:02:00,
2013-04-14 23:04:00,35.4,34.9,29.56,ESE,112,2.9,5.4,98,0.00,,---,0.00,VWS V14.01,2013-04-15 04:04:00,
2013-04-14 23:09:00,35.4,34.9,29.56,SE,135,1.6,5.4,98,0.00,,---,0.00,VWS V14.01,2013-04-15 04:09:00,
2013-04-14 23:14:00,35.4,34.9,29.59,SSE,158,2.5,3.4,98,0.00,,---,0.00,VWS V14.01,2013-04-15 04:14:00,
2013-04-14 23:19:00,35.6,35.1,29.59,SSW,202,2.2,2.7,98,0.00,,---,0.00,VWS V14.01,2013-04-15 04:19:00,
2013-04-14 23:25:00,35.8,35.3,29.59,NE,45,2.7,3.4,98,0.00,,---,0.00,VWS V14.01,2013-04-15 04:25:00,
2013-04-14 23:31:00,35.8,35.3,29.56,South,180,2.5,3.6,98,0.00,,---,0.00,VWS V14.01,2013-04-15 04:31:00,
2013-04-14 23:37:00,36.0,35.5,29.56,ESE,112,2.7,2.7,98,0.00,,---,0.00,VWS V14.01,2013-04-15 04:37:00,
2013-04-14 23:43:00,36.0,35.5,29.59,South,180,2.5,5.8,98,0.00,,---,0.00,VWS V14.01,2013-04-15 04:43:00,
2013-04-14 23:49:00,35.8,35.3,29.59,South,180,3.4,3.4,98,0.00,,---,0.00,VWS V14.01,2013-04-15 04:49:00,
2013-04-14 23:55:00,35.8,35.3,29.59,South,180,4.0,4.0,98,0.00,,---,0.00,VWS V14.01,2013-04-15 04:55:00,